Time,TemperatureF,DewpointF,PressureIn,WindDirection,WindDirectionDegrees,WindSpeedMPH,WindSpeedGustMPH,Humidity,HourlyPrecipIn,Conditions,Clouds,dailyrainin,SoftwareType,DateUTC
2013-01-21 00:09:00,35.2,26.8,30.16,NNE,25,1.0,2.0,71,0.00,,SKC,0.00,VWS V14.01,2013-01-21 08:09:00,
2013-01-21 00:14:00,35.0,26.2,30.16,NNE,25,0.0,1.0,70,0.00,,SKC,0.00,VWS V14.01,2013-01-21 08:14:00,
2013-01-21 00:19:00,35.0,26.2,30.15,NNE,25,0.0,0.0,70,0.00,,SKC,0.00,VWS V14.01,2013-01-21 08:19:00,
2013-01-21 00:24:00,34.9,26.5,30.15,NNE,25,1.0,2.0,71,0.00,,SKC,0.00,VWS V14.01,2013-01-21 08:24:00,
2013-01-21 00:29:00,35.1,26.3,30.15,NNE,25,0.0,1.0,70,0.00,,SKC,0.00,VWS V14.01,2013-01-21 08:29:00,
2013-01-21 00:39:00,35.3,26.5,30.15,NNE,25,1.0,1.0,70,0.00,,SKC,0.00,VWS V14.01,2013-01-21 08:39:00,
2013-01-21 00:49:00,35.2,26.4,30.15,NNE,25,0.0,2.0,70,0.00,,SKC,0.00,VWS V14.01,2013-01-21 08:49:00,
2013-01-21 00:54:00,35.2,26.4,30.15,NNE,25,0.0,0.0,70,0.00,,SKC,0.00,VWS V14.01,2013-01-21 08:54:00,
2013-01-21 01:04:00,34.8,26.0,30.15,NNE,25,0.0,0.0,70,0.00,,SKC,0.00,VWS V14.01,2013-01-21 09:04:00,
2013-01-21 01:09:00,34.5,26.1,30.15,NNE,25,0.0,0.0,71,0.00,,SKC,0.00,VWS V14.01,2013-01-21 09:09:00,
2013-01-21 01:14:00,34.5,26.1,30.14,NNE,25,0.0,2.0,71,0.00,,SKC,0.00,VWS V14.01,2013-01-21 09:14:00,
2013-01-21 01:19:00,34.6,26.5,30.14,NNE,25,0.0,0.0,72,0.00,,SKC,0.00,VWS V14.01,2013-01-21 09:19:00,
2013-01-21 01:24:00,34.4,26.3,30.14,NNE,25,0.0,0.0,72,0.00,,SKC,0.00,VWS V14.01,2013-01-21 09:24:00,
2013-01-21 01:29:00,34.4,26.3,30.14,NNE,25,0.0,0.0,72,0.00,,SKC,0.00,VWS V14.01,2013-01-21 09:29:00,
2013-01-21 01:39:00,33.8,26.1,30.15,NNE,25,0.0,0.0,73,0.00,,SKC,0.00,VWS V14.01,2013-01-21 09:39:00,
2013-01-21 01:44:00,33.7,26.0,30.14,NNE,25,0.0,1.0,73,0.00,,SKC,0.00,VWS V14.01,2013-01-21 09:44:00,
2013-01-21 01:49:00,33.9,26.2,30.15,NNE,25,0.0,2.0,73,0.00,,SKC,0.00,VWS V14.01,2013-01-21 09:49:00,
2013-01-21 01:54:00,34.0,26.6,30.15,NNE,25,0.0,0.0,74,0.00,,SKC,0.00,VWS V14.01,2013-01-21 09:54:00,
2013-01-21 01:59:00,33.9,26.5,30.15,NNE,25,0.0,0.0,74,0.00,,SKC,0.00,VWS V14.01,2013-01-21 09:59:00,
2013-01-21 02:04:00,33.6,26.2,30.14,NNE,25,0.0,0.0,74,0.00,,SKC,0.00,VWS V14.01,2013-01-21 10:04:00,
2013-01-21 02:14:00,33.2,26.1,30.14,NNE,25,0.0,0.0,75,0.00,,SKC,0.00,VWS V14.01,2013-01-21 10:14:00,
2013-01-21 02:19:00,33.0,26.0,30.15,NNE,25,0.0,0.0,75,0.00,,SKC,0.00,VWS V14.01,2013-01-21 10:19:00,
2013-01-21 02:24:00,32.7,25.7,30.15,NNE,25,0.0,0.0,75,0.00,,SKC,0.00,VWS V14.01,2013-01-21 10:24:00,
2013-01-21 02:29:00,32.4,25.7,30.15,NNE,25,0.0,0.0,76,0.00,,SKC,0.00,VWS V14.01,2013-01-21 10:29:00,
2013-01-21 02:34:00,32.3,25.9,30.15,NNE,25,0.0,0.0,77,0.00,,SKC,0.00,VWS V14.01,2013-01-21 10:34:00,
2013-01-21 02:44:00,32.3,26.2,30.14,NNE,25,0.0,1.0,78,0.00,,SKC,0.00,VWS V14.01,2013-01-21 10:44:00,
2013-01-21 02:49:00,32.4,26.3,30.14,NNE,25,0.0,0.0,78,0.00,,SKC,0.00,VWS V14.01,2013-01-21 10:49:00,
2013-01-21 02:54:00,32.5,26.1,30.14,NNE,25,0.0,0.0,77,0.00,,SKC,0.00,VWS V14.01,2013-01-21 10:54:00,
2013-01-21 02:59:00,32.4,26.0,30.14,NNE,25,0.0,0.0,77,0.00,,SKC,0.00,VWS V14.01,2013-01-21 10:59:00,
2013-01-21 03:09:00,32.0,25.9,30.14,NNE,25,0.0,0.0,78,0.00,,SKC,0.00,VWS V14.01,2013-01-21 11:09:00,
2013-01-21 03:14:00,32.0,26.2,30.14,NNE,25,0.0,0.0,79,0.00,,SKC,0.00,VWS V14.01,2013-01-21 11:14:00,
2013-01-21 03:19:00,31.9,25.8,30.14,NNE,25,0.0,0.0,78,0.00,,SKC,0.00,VWS V14.01,2013-01-21 11:19:00,
2013-01-21 03:24:00,31.8,25.7,30.14,NNE,25,0.0,0.0,78,0.00,,SKC,0.00,VWS V14.01,2013-01-21 11:24:00,
2013-01-21 03:29:00,31.8,26.0,30.14,NNE,25,0.0,0.0,79,0.00,,SKC,0.00,VWS V14.01,2013-01-21 11:29:00,
2013-01-21 03:34:00,31.7,25.6,30.14,NNE,25,0.0,0.0,78,0.00,,SKC,0.00,VWS V14.01,2013-01-21 11:34:00,
2013-01-21 03:44:00,31.5,25.4,30.14,NNE,25,0.0,0.0,78,0.00,,SKC,0.00,VWS V14.01,2013-01-21 11:44:00,
2013-01-21 03:49:00,31.4,25.6,30.14,NNE,25,0.0,0.0,79,0.00,,SKC,0.00,VWS V14.01,2013-01-21 11:49:00,
2013-01-21 03:54:00,31.3,25.6,30.14,NNE,25,0.0,1.0,79,0.00,,SKC,0.00,VWS V14.01,2013-01-21 11:54:00,
2013-01-21 04:04:00,31.1,25.4,30.14,NNE,25,0.0,0.0,79,0.00,,SKC,0.00,VWS V14.01,2013-01-21 12:04:00,
2013-01-21 04:09:00,31.1,25.4,30.14,NNE,25,0.0,1.0,79,0.00,,SKC,0.00,VWS V14.01,2013-01-21 12:09:00,
2013-01-21 04:14:00,31.0,25.6,30.14,NNE,25,0.0,0.0,80,0.00,,SKC,0.00,VWS V14.01,2013-01-21 12:14:00,
2013-01-21 04:24:00,30.8,25.7,30.14,NNE,25,0.0,0.0,81,0.00,,SKC,0.00,VWS V14.01,2013-01-21 12:24:00,
2013-01-21 04:34:00,31.0,26.2,30.14,NNE,25,0.0,0.0,82,0.00,,SKC,0.00,VWS V14.01,2013-01-21 12:34:00,
2013-01-21 04:39:00,31.1,26.3,30.14,NNE,25,0.0,0.0,82,0.00,,SKC,0.00,VWS V14.01,2013-01-21 12:39:00,
2013-01-21 04:44:00,31.2,26.4,30.13,NNE,25,0.0,0.0,82,0.00,,SKC,0.00,VWS V14.01,2013-01-21 12:44:00,
2013-01-21 04:49:00,31.2,26.4,30.14,NNE,25,0.0,0.0,82,0.00,,SKC,0.00,VWS V14.01,2013-01-21 12:49:00,
2013-01-21 04:59:00,31.5,26.9,30.13,NNE,25,0.0,1.0,83,0.00,,SKC,0.00,VWS V14.01,2013-01-21 12:59:00,
2013-01-21 05:09:00,32.3,28.3,30.14,NNE,15,2.0,7.0,85,0.00,,SKC,0.00,VWS V14.01,2013-01-21 13:09:00,
2013-01-21 05:14:00,34.4,30.4,30.13,NNE,22,5.0,8.0,85,0.00,,SKC,0.00,VWS V14.01,2013-01-21 13:14:00,
2013-01-21 05:19:00,37.1,31.8,30.13,North,360,2.0,7.0,81,0.00,,SKC,0.00,VWS V14.01,2013-01-21 13:19:00,
2013-01-21 05:29:00,39.7,33.1,30.13,NNE,23,1.0,6.0,77,0.00,,SKC,0.00,VWS V14.01,2013-01-21 13:29:00,
2013-01-21 05:34:00,40.3,33.7,30.13,NNE,17,4.0,5.0,77,0.00,,SKC,0.00,VWS V14.01,2013-01-21 13:34:00,
2013-01-21 05:39:00,41.0,34.0,30.12,NNE,17,1.0,5.0,76,0.00,,SKC,0.00,VWS V14.01,2013-01-21 13:39:00,
2013-01-21 05:44:00,41.4,34.4,30.12,NNE,30,2.0,4.0,76,0.00,,SKC,0.00,VWS V14.01,2013-01-21 13:44:00,
2013-01-21 05:54:00,42.3,35.3,30.12,NNE,26,0.0,2.0,76,0.00,,SKC,0.00,VWS V14.01,2013-01-21 13:54:00,
2013-01-21 05:59:00,42.5,35.5,30.12,NNE,25,0.0,0.0,76,0.00,,SKC,0.00,VWS V14.01,2013-01-21 13:59:00,
2013-01-21 06:04:00,42.4,35.4,30.13,NNE,26,0.0,0.0,76,0.00,,SKC,0.00,VWS V14.01,2013-01-21 14:04:00,
2013-01-21 06:09:00,42.1,35.1,30.13,NNE,26,0.0,0.0,76,0.00,,SKC,0.00,VWS V14.01,2013-01-21 14:09:00,
2013-01-21 06:14:00,41.9,35.2,30.13,NNE,26,0.0,2.0,77,0.00,,SKC,0.00,VWS V14.01,2013-01-21 14:14:00,
2013-01-21 06:19:00,41.7,35.0,30.13,NNE,25,0.0,0.0,77,0.00,,SKC,0.00,VWS V14.01,2013-01-21 14:19:00,
2013-01-21 06:24:00,41.2,34.9,30.13,NNE,26,0.0,0.0,78,0.00,,SKC,0.00,VWS V14.01,2013-01-21 14:24:00,
2013-01-21 06:34:00,40.1,34.1,30.13,NNE,25,0.0,0.0,79,0.00,,SKC,0.00,VWS V14.01,2013-01-21 14:34:00,
2013-01-21 06:39:00,39.6,33.6,30.13,NNE,25,0.0,0.0,79,0.00,,SKC,0.00,VWS V14.01,2013-01-21 14:39:00,
2013-01-21 06:44:00,39.1,33.5,30.13,NNE,26,0.0,0.0,80,0.00,,SKC,0.00,VWS V14.01,2013-01-21 14:44:00,
2013-01-21 06:49:00,38.6,33.6,30.13,NNE,26,0.0,0.0,82,0.00,,SKC,0.00,VWS V14.01,2013-01-21 14:49:00,
2013-01-21 06:54:00,38.3,33.3,30.13,NNE,26,0.0,0.0,82,0.00,,SKC,0.00,VWS V14.01,2013-01-21 14:54:00,
2013-01-21 07:04:00,37.8,33.4,30.14,NNE,26,1.0,1.0,84,0.00,,SKC,0.00,VWS V14.01,2013-01-21 15:04:00,
2013-01-21 07:09:00,37.5,33.1,30.14,NNE,25,0.0,1.0,84,0.00,,SKC,0.00,VWS V14.01,2013-01-21 15:09:00,
2013-01-21 07:19:00,37.5,33.7,30.14,NNE,26,0.0,1.0,86,0.00,,SKC,0.00,VWS V14.01,2013-01-21 15:19:00,
2013-01-21 07:24:00,37.8,33.7,30.14,NNE,26,0.0,2.0,85,0.00,,SKC,0.00,VWS V14.01,2013-01-21 15:24:00,
2013-01-21 07:34:00,37.9,33.8,30.14,NNE,26,0.0,1.0,85,0.00,,SKC,0.00,VWS V14.01,2013-01-21 15:34:00,
2013-01-21 07:44:00,37.7,33.6,30.15,NNE,26,0.0,1.0,85,0.00,,SKC,0.00,VWS V14.01,2013-01-21 15:44:00,
2013-01-21 07:49:00,37.8,33.7,30.15,NNE,26,0.0,0.0,85,0.00,,SKC,0.00,VWS V14.01,2013-01-21 15:49:00,
2013-01-21 07:54:00,37.9,34.1,30.15,NNE,26,0.0,0.0,86,0.00,,SKC,0.00,VWS V14.01,2013-01-21 15:54:00,
2013-01-21 08:04:00,37.9,34.1,30.15,NNE,26,0.0,0.0,86,0.00,,SKC,0.00,VWS V14.01,2013-01-21 16:04:00,
2013-01-21 08:14:00,38.4,34.9,30.16,NNE,26,0.0,0.0,87,0.00,,SKC,0.00,VWS V14.01,2013-01-21 16:14:00,
2013-01-21 08:19:00,39.1,35.6,30.16,NNE,25,0.0,0.0,87,0.00,,SKC,0.00,VWS V14.01,2013-01-21 16:19:00,
2013-01-21 08:24:00,39.7,35.9,30.16,NNE,26,0.0,0.0,86,0.00,,SKC,0.00,VWS V14.01,2013-01-21 16:24:00,
2013-01-21 08:34:00,41.6,37.4,30.16,NNE,25,0.0,0.0,85,0.00,,SKC,0.00,VWS V14.01,2013-01-21 16:34:00,
2013-01-21 08:39:00,43.0,38.2,30.16,NNE,26,0.0,0.0,83,0.00,,SKC,0.00,VWS V14.01,2013-01-21 16:39:00,
2013-01-21 08:49:00,47.1,39.9,30.16,NNE,26,0.0,1.0,76,0.00,,SKC,0.00,VWS V14.01,2013-01-21 16:49:00,
2013-01-21 08:54:00,49.2,40.6,30.16,NNE,26,0.0,1.0,72,0.00,,SKC,0.00,VWS V14.01,2013-01-21 16:54:00,
2013-01-21 08:59:00,50.8,41.0,30.16,WNW,284,1.0,2.0,69,0.00,,SKC,0.00,VWS V14.01,2013-01-21 16:59:00,
2013-01-21 09:09:00,53.1,40.8,30.17,NNE,24,0.0,6.0,63,0.00,,SKC,0.00,VWS V14.01,2013-01-21 17:09:00,
2013-01-21 09:14:00,54.1,40.5,30.17,NNE,30,2.0,5.0,60,0.00,,SKC,0.00,VWS V14.01,2013-01-21 17:14:00,
2013-01-21 09:24:00,55.5,41.0,30.17,WNW,302,0.0,5.0,58,0.00,,SKC,0.00,VWS V14.01,2013-01-21 17:24:00,
2013-01-21 09:29:00,55.3,39.9,30.17,NW,309,1.0,4.0,56,0.00,,SKC,0.00,VWS V14.01,2013-01-21 17:29:00,
2013-01-21 09:34:00,54.1,39.7,30.17,NW,309,0.0,2.0,58,0.00,,SKC,0.00,VWS V14.01,2013-01-21 17:34:00,
2013-01-21 09:44:00,54.7,41.1,30.17,NE,41,0.0,2.0,60,0.00,,SKC,0.00,VWS V14.01,2013-01-21 17:44:00,
2013-01-21 09:49:00,55.8,41.3,30.17,NE,56,1.0,3.0,58,0.00,,SKC,0.00,VWS V14.01,2013-01-21 17:49:00,
2013-01-21 09:54:00,56.6,41.1,30.17,NNE,24,0.0,7.0,56,0.00,,SKC,0.00,VWS V14.01,2013-01-21 17:54:00,
2013-01-21 09:59:00,56.6,41.1,30.17,ENE,59,5.0,6.0,56,0.00,,SKC,0.00,VWS V14.01,2013-01-21 17:59:00,
2013-01-21 10:09:00,56.6,40.6,30.17,East,98,2.0,6.0,55,0.00,,SKC,0.00,VWS V14.01,2013-01-21 18:09:00,
2013-01-21 10:14:00,56.6,40.2,30.17,ENE,64,0.0,8.0,54,0.00,,SKC,0.00,VWS V14.01,2013-01-21 18:14:00,
2013-01-21 10:19:00,56.4,40.0,30.17,NE,51,4.0,7.0,54,0.00,,SKC,0.00,VWS V14.01,2013-01-21 18:19:00,
2013-01-21 10:24:00,56.1,39.7,30.18,NNE,13,2.0,6.0,54,0.00,,SKC,0.00,VWS V14.01,2013-01-21 18:24:00,
2013-01-21 10:29:00,56.2,39.8,30.18,NE,37,2.0,5.0,54,0.00,,SKC,0.00,VWS V14.01,2013-01-21 18:29:00,
2013-01-21 10:34:00,56.4,40.0,30.18,ENE,69,1.0,5.0,54,0.00,,SKC,0.00,VWS V14.01,2013-01-21 18:34:00,
2013-01-21 10:39:00,56.9,40.0,30.18,NE,45,2.0,5.0,53,0.00,,SKC,0.00,VWS V14.01,2013-01-21 18:39:00,
2013-01-21 10:44:00,57.5,40.5,30.18,ESE,111,3.0,6.0,53,0.00,,SKC,0.00,VWS V14.01,2013-01-21 18:44:00,
2013-01-21 10:54:00,57.8,40.3,30.18,NE,37,1.0,9.0,52,0.00,,SKC,0.00,VWS V14.01,2013-01-21 18:54:00,
2013-01-21 10:59:00,58.0,40.0,30.18,North,5,8.0,10.0,51,0.00,,SKC,0.00,VWS V14.01,2013-01-21 18:59:00,
2013-01-21 11:04:00,58.1,39.6,30.18,East,82,0.0,10.0,50,0.00,,SKC,0.00,VWS V14.01,2013-01-21 19:04:00,
2013-01-21 11:14:00,58.6,41.0,30.17,NNE,19,4.0,9.0,52,0.00,,SKC,0.00,VWS V14.01,2013-01-21 19:14:00,
2013-01-21 11:19:00,59.0,40.9,30.17,NNE,26,2.0,9.0,51,0.00,,SKC,0.00,VWS V14.01,2013-01-21 19:19:00,
2013-01-21 11:29:00,59.6,41.5,30.17,ENE,74,4.0,8.0,51,0.00,,SKC,0.00,VWS V14.01,2013-01-21 19:29:00,
2013-01-21 11:34:00,59.7,41.6,30.16,NNE,29,4.0,7.0,51,0.00,,SKC,0.00,VWS V14.01,2013-01-21 19:34:00,
2013-01-21 11:44:00,59.7,41.0,30.15,NNE,30,4.0,9.0,50,0.00,,SKC,0.00,VWS V14.01,2013-01-21 19:44:00,
2013-01-21 11:49:00,59.4,40.8,30.15,North,355,2.0,9.0,50,0.00,,SKC,0.00,VWS V14.01,2013-01-21 19:49:00,
2013-01-21 11:59:00,59.0,41.4,30.15,ENE,65,7.0,7.0,52,0.00,,SKC,0.00,VWS V14.01,2013-01-21 19:59:00,
2013-01-21 12:04:00,59.0,40.9,30.15,NE,49,1.0,9.0,51,0.00,,SKC,0.00,VWS V14.01,2013-01-21 20:04:00,
2013-01-21 12:14:00,59.4,41.8,30.14,North,360,6.0,10.0,52,0.00,,SKC,0.00,VWS V14.01,2013-01-21 20:14:00,
2013-01-21 12:24:00,59.6,42.0,30.14,NE,51,2.0,10.0,52,0.00,,SKC,0.00,VWS V14.01,2013-01-21 20:24:00,
2013-01-21 12:34:00,59.5,41.9,30.14,NE,39,4.0,8.0,52,0.00,,SKC,0.00,VWS V14.01,2013-01-21 20:34:00,
2013-01-21 12:44:00,59.8,42.2,30.13,NNE,22,5.0,9.0,52,0.00,,SKC,0.00,VWS V14.01,2013-01-21 20:44:00,
2013-01-21 12:49:00,59.8,42.2,30.13,NNE,25,5.0,8.0,52,0.00,,SKC,0.00,VWS V14.01,2013-01-21 20:49:00,
2013-01-21 12:54:00,59.8,42.2,30.13,NE,35,5.0,9.0,52,0.00,,SKC,0.00,VWS V14.01,2013-01-21 20:54:00,
2013-01-21 12:59:00,60.0,42.3,30.13,NE,53,2.0,8.0,52,0.00,,SKC,0.00,VWS V14.01,2013-01-21 20:59:00,
2013-01-21 13:04:00,60.2,42.5,30.13,NNE,30,4.0,8.0,52,0.00,,SKC,0.00,VWS V14.01,2013-01-21 21:04:00,
2013-01-21 13:09:00,60.3,42.1,30.13,NNE,16,6.0,8.0,51,0.00,,SKC,0.00,VWS V14.01,2013-01-21 21:09:00,
2013-01-21 13:14:00,60.5,42.3,30.12,NE,45,4.0,8.0,51,0.00,,SKC,0.00,VWS V14.01,2013-01-21 21:14:00,
2013-01-21 13:24:00,60.5,42.3,30.12,NW,325,1.0,13.0,51,0.00,,SKC,0.00,VWS V14.01,2013-01-21 21:24:00,
2013-01-21 13:29:00,60.5,41.8,30.12,North,9,4.0,7.0,50,0.00,,SKC,0.00,VWS V14.01,2013-01-21 21:29:00,
2013-01-21 13:39:00,60.6,42.4,30.12,NNE,22,3.0,8.0,51,0.00,,SKC,0.00,VWS V14.01,2013-01-21 21:39:00,
2013-01-21 13:44:00,60.6,42.4,30.12,North,350,4.0,11.0,51,0.00,,SKC,0.00,VWS V14.01,2013-01-21 21:44:00,
2013-01-21 13:49:00,60.5,42.3,30.12,NE,55,1.0,8.0,51,0.00,,SKC,0.00,VWS V14.01,2013-01-21 21:49:00,
2013-01-21 13:59:00,60.7,42.5,30.11,NE,37,1.0,8.0,51,0.00,,SKC,0.00,VWS V14.01,2013-01-21 21:59:00,
2013-01-21 14:09:00,60.6,42.9,30.11,ENE,57,3.0,8.0,52,0.00,,SKC,0.00,VWS V14.01,2013-01-21 22:09:00,
2013-01-21 14:14:00,60.3,43.1,30.11,NE,51,3.0,7.0,53,0.00,,SKC,0.00,VWS V14.01,2013-01-21 22:14:00,
2013-01-21 14:24:00,60.2,43.0,30.11,North,360,4.0,8.0,53,0.00,,SKC,0.00,VWS V14.01,2013-01-21 22:24:00,
2013-01-21 14:29:00,60.1,42.9,30.11,NNE,17,1.0,7.0,53,0.00,,SKC,0.00,VWS V14.01,2013-01-21 22:29:00,
2013-01-21 14:34:00,60.1,42.4,30.11,ENE,64,5.0,8.0,52,0.00,,SKC,0.00,VWS V14.01,2013-01-21 22:34:00,
2013-01-21 14:44:00,59.9,42.2,30.11,NE,49,2.0,7.0,52,0.00,,SKC,0.00,VWS V14.01,2013-01-21 22:44:00,
2013-01-21 14:49:00,60.0,42.3,30.11,North,5,3.0,7.0,52,0.00,,SKC,0.00,VWS V14.01,2013-01-21 22:49:00,
2013-01-21 14:59:00,59.9,41.8,30.11,NE,52,6.0,10.0,51,0.00,,SKC,0.00,VWS V14.01,2013-01-21 22:59:00,
2013-01-21 15:04:00,60.0,41.8,30.11,NE,41,2.0,8.0,51,0.00,,SKC,0.00,VWS V14.01,2013-01-21 23:04:00,
2013-01-21 15:09:00,59.9,42.2,30.11,ENE,60,4.0,7.0,52,0.00,,SKC,0.00,VWS V14.01,2013-01-21 23:09:00,
2013-01-21 15:14:00,59.8,41.7,30.11,NE,51,8.0,8.0,51,0.00,,SKC,0.00,VWS V14.01,2013-01-21 23:14:00,
2013-01-21 15:19:00,59.7,41.6,30.11,ENE,66,4.0,8.0,51,0.00,,SKC,0.00,VWS V14.01,2013-01-21 23:19:00,
2013-01-21 15:24:00,59.8,40.6,30.11,ENE,59,4.0,6.0,49,0.00,,SKC,0.00,VWS V14.01,2013-01-21 23:24:00,
2013-01-21 15:29:00,59.9,40.7,30.11,ESE,120,4.0,4.0,49,0.00,,SKC,0.00,VWS V14.01,2013-01-21 23:29:00,
2013-01-21 15:34:00,59.9,39.6,30.11,NNE,30,0.0,6.0,47,0.00,,SKC,0.00,VWS V14.01,2013-01-21 23:34:00,
2013-01-21 15:39:00,59.6,39.4,30.11,NE,40,2.0,7.0,47,0.00,,SKC,0.00,VWS V14.01,2013-01-21 23:39:00,
2013-01-21 15:49:00,59.2,37.9,30.10,NE,56,3.0,5.0,45,0.00,,SKC,0.00,VWS V14.01,2013-01-21 23:49:00,
2013-01-21 15:54:00,59.3,36.8,30.10,ENE,76,2.0,4.0,43,0.00,,SKC,0.00,VWS V14.01,2013-01-21 23:54:00,
2013-01-21 15:59:00,59.4,35.7,30.10,NE,55,0.0,6.0,41,0.00,,SKC,0.00,VWS V14.01,2013-01-21 23:59:00,
2013-01-21 16:04:00,59.5,35.2,30.10,NE,43,2.0,8.0,40,0.00,,SKC,0.00,VWS V14.01,2013-01-22 00:04:00,
2013-01-21 16:14:00,59.4,33.8,30.10,ENE,73,2.0,5.0,38,0.00,,SKC,0.00,VWS V14.01,2013-01-22 00:14:00,
2013-01-21 16:19:00,59.4,33.1,30.09,ENE,64,4.0,5.0,37,0.00,,SKC,0.00,VWS V14.01,2013-01-22 00:19:00,
2013-01-21 16:24:00,59.4,32.5,30.09,ENE,67,1.0,4.0,36,0.00,,SKC,0.00,VWS V14.01,2013-01-22 00:24:00,
2013-01-21 16:29:00,59.5,31.1,30.09,NE,49,3.0,6.0,34,0.00,,SKC,0.00,VWS V14.01,2013-01-22 00:29:00,
2013-01-21 16:34:00,59.6,31.2,30.09,ENE,65,1.0,5.0,34,0.00,,SKC,0.00,VWS V14.01,2013-01-22 00:34:00,
2013-01-21 16:39:00,59.5,30.4,30.09,ENE,57,1.0,4.0,33,0.00,,SKC,0.00,VWS V14.01,2013-01-22 00:39:00,
2013-01-21 16:44:00,59.3,29.5,30.09,ENE,76,0.0,4.0,32,0.00,,SKC,0.00,VWS V14.01,2013-01-22 00:44:00,
2013-01-21 16:49:00,59.0,28.4,30.09,ESE,102,1.0,6.0,31,0.00,,SKC,0.00,VWS V14.01,2013-01-22 00:49:00,
2013-01-21 16:54:00,59.0,28.4,30.09,ENE,57,0.0,6.0,31,0.00,,SKC,0.00,VWS V14.01,2013-01-22 00:54:00,
2013-01-21 16:59:00,58.5,28.8,30.09,ENE,64,2.0,4.0,32,0.00,,SKC,0.00,VWS V14.01,2013-01-22 00:59:00,
2013-01-21 17:04:00,58.0,29.1,30.09,ENE,65,0.0,2.0,33,0.00,,SKC,0.00,VWS V14.01,2013-01-22 01:04:00,
2013-01-21 17:09:00,57.3,28.5,30.08,ENE,65,0.0,1.0,33,0.00,,SKC,0.00,VWS V14.01,2013-01-22 01:09:00,
2013-01-21 17:14:00,56.8,28.0,30.08,East,86,0.0,4.0,33,0.00,,SKC,0.00,VWS V14.01,2013-01-22 01:14:00,
2013-01-21 17:19:00,56.4,28.4,30.08,East,86,0.0,2.0,34,0.00,,SKC,0.00,VWS V14.01,2013-01-22 01:19:00,
2013-01-21 17:24:00,56.0,28.8,30.08,East,86,0.0,2.0,35,0.00,,SKC,0.00,VWS V14.01,2013-01-22 01:24:00,
2013-01-21 17:29:00,55.6,28.4,30.09,East,86,0.0,0.0,35,0.00,,SKC,0.00,VWS V14.01,2013-01-22 01:29:00,
2013-01-21 17:34:00,55.1,28.6,30.08,East,88,3.0,3.0,36,0.00,,SKC,0.00,VWS V14.01,2013-01-22 01:34:00,
2013-01-21 17:39:00,55.0,27.9,30.08,East,88,1.0,3.0,35,0.00,,SKC,0.00,VWS V14.01,2013-01-22 01:39:00,
2013-01-21 17:44:00,54.9,27.8,30.08,East,88,0.0,2.0,35,0.00,,SKC,0.00,VWS V14.01,2013-01-22 01:44:00,
2013-01-21 17:49:00,54.7,28.3,30.08,East,88,0.0,0.0,36,0.00,,SKC,0.00,VWS V14.01,2013-01-22 01:49:00,
2013-01-21 17:54:00,54.2,29.2,30.09,East,88,0.0,1.0,38,0.00,,SKC,0.00,VWS V14.01,2013-01-22 01:54:00,
2013-01-21 17:59:00,53.6,29.3,30.08,East,88,0.0,0.0,39,0.00,,SKC,0.00,VWS V14.01,2013-01-22 01:59:00,
2013-01-21 18:09:00,51.7,29.4,30.09,East,88,0.0,0.0,42,0.00,,SKC,0.00,VWS V14.01,2013-01-22 02:09:00,
2013-01-21 18:14:00,50.8,29.7,30.09,East,87,0.0,0.0,44,0.00,,SKC,0.00,VWS V14.01,2013-01-22 02:14:00,
2013-01-21 18:19:00,50.3,29.8,30.09,East,88,0.0,0.0,45,0.00,,SKC,0.00,VWS V14.01,2013-01-22 02:19:00,
2013-01-21 18:24:00,49.9,29.4,30.09,East,88,0.0,0.0,45,0.00,,SKC,0.00,VWS V14.01,2013-01-22 02:24:00,
2013-01-21 18:29:00,49.5,30.1,30.09,East,88,0.0,0.0,47,0.00,,SKC,0.00,VWS V14.01,2013-01-22 02:29:00,
2013-01-21 18:34:00,48.7,29.9,30.09,East,88,0.0,2.0,48,0.00,,SKC,0.00,VWS V14.01,2013-01-22 02:34:00,
2013-01-21 18:44:00,47.1,29.4,30.09,East,88,0.0,2.0,50,0.00,,SKC,0.00,VWS V14.01,2013-01-22 02:44:00,
2013-01-21 18:49:00,46.3,29.2,30.09,East,88,2.0,2.0,51,0.00,,SKC,0.00,VWS V14.01,2013-01-22 02:49:00,
2013-01-21 18:54:00,45.7,28.6,30.09,East,88,0.0,2.0,51,0.00,,SKC,0.00,VWS V14.01,2013-01-22 02:54:00,
2013-01-21 18:59:00,45.2,28.6,30.10,East,87,0.0,0.0,52,0.00,,SKC,0.00,VWS V14.01,2013-01-22 02:59:00,
2013-01-21 19:04:00,44.6,29.0,30.10,East,88,0.0,2.0,54,0.00,,SKC,0.00,VWS V14.01,2013-01-22 03:04:00,
2013-01-21 19:09:00,44.0,28.4,30.10,East,88,0.0,2.0,54,0.00,,SKC,0.00,VWS V14.01,2013-01-22 03:09:00,
2013-01-21 19:14:00,43.6,29.0,30.10,East,87,0.0,0.0,56,0.00,,SKC,0.00,VWS V14.01,2013-01-22 03:14:00,
2013-01-21 19:19:00,43.3,28.7,30.10,East,88,0.0,1.0,56,0.00,,SKC,0.00,VWS V14.01,2013-01-22 03:19:00,
2013-01-21 19:24:00,43.1,28.9,30.10,East,88,0.0,0.0,57,0.00,,SKC,0.00,VWS V14.01,2013-01-22 03:24:00,
2013-01-21 19:29:00,42.9,29.2,30.10,East,88,0.0,2.0,58,0.00,,SKC,0.00,VWS V14.01,2013-01-22 03:29:00,
2013-01-21 19:34:00,42.6,29.3,30.10,East,87,0.0,0.0,59,0.00,,SKC,0.00,VWS V14.01,2013-01-22 03:34:00,
2013-01-21 19:39:00,42.3,29.0,30.10,East,88,0.0,1.0,59,0.00,,SKC,0.00,VWS V14.01,2013-01-22 03:39:00,
2013-01-21 19:44:00,42.1,29.2,30.10,East,88,1.0,2.0,60,0.00,,SKC,0.00,VWS V14.01,2013-01-22 03:44:00,
2013-01-21 19:49:00,41.7,29.3,30.10,East,88,0.0,1.0,61,0.00,,SKC,0.00,VWS V14.01,2013-01-22 03:49:00,
2013-01-21 19:54:00,41.1,29.5,30.10,East,88,0.0,2.0,63,0.00,,SKC,0.00,VWS V14.01,2013-01-22 03:54:00,
2013-01-21 19:59:00,40.8,29.2,30.10,East,88,0.0,0.0,63,0.00,,SKC,0.00,VWS V14.01,2013-01-22 03:59:00,
2013-01-21 20:04:00,40.5,29.3,30.10,East,88,0.0,0.0,64,0.00,,SKC,0.00,VWS V14.01,2013-01-22 04:04:00,
2013-01-21 20:09:00,40.1,29.3,30.11,East,87,0.0,0.0,65,0.00,,SKC,0.00,VWS V14.01,2013-01-22 04:09:00,
2013-01-21 20:14:00,39.8,29.4,30.11,East,88,1.0,2.0,66,0.00,,SKC,0.00,VWS V14.01,2013-01-22 04:14:00,
2013-01-21 20:19:00,39.5,29.5,30.11,East,88,0.0,2.0,67,0.00,,SKC,0.00,VWS V14.01,2013-01-22 04:19:00,
2013-01-21 20:24:00,39.5,29.8,30.11,East,88,0.0,0.0,68,0.00,,SKC,0.00,VWS V14.01,2013-01-22 04:24:00,
2013-01-21 20:29:00,39.6,30.3,30.11,East,87,0.0,1.0,69,0.00,,SKC,0.00,VWS V14.01,2013-01-22 04:29:00,
2013-01-21 20:39:00,39.4,30.4,30.11,East,88,0.0,0.0,70,0.00,,SKC,0.00,VWS V14.01,2013-01-22 04:39:00,
2013-01-21 20:44:00,39.5,30.9,30.11,East,88,0.0,0.0,71,0.00,,SKC,0.00,VWS V14.01,2013-01-22 04:44:00,
2013-01-21 20:49:00,39.5,30.9,30.11,East,88,0.0,0.0,71,0.00,,SKC,0.00,VWS V14.01,2013-01-22 04:49:00,
2013-01-21 20:54:00,39.4,30.8,30.11,East,88,0.0,0.0,71,0.00,,SKC,0.00,VWS V14.01,2013-01-22 04:54:00,
2013-01-21 20:59:00,39.3,30.7,30.11,East,88,0.0,0.0,71,0.00,,SKC,0.00,VWS V14.01,2013-01-22 04:59:00,
2013-01-21 21:04:00,39.3,30.7,30.11,East,88,0.0,1.0,71,0.00,,SKC,0.00,VWS V14.01,2013-01-22 05:04:00,
2013-01-21 21:10:00,39.1,30.9,30.11,East,87,0.0,0.0,72,0.00,,SKC,0.00,VWS V14.01,2013-01-22 05:10:00,
2013-01-21 21:14:00,39.1,31.2,30.11,East,88,0.0,0.0,73,0.00,,SKC,0.00,VWS V14.01,2013-01-22 05:14:00,
2013-01-21 21:19:00,39.0,31.1,30.12,East,88,0.0,0.0,73,0.00,,SKC,0.00,VWS V14.01,2013-01-22 05:19:00,
2013-01-21 21:24:00,38.8,30.9,30.12,East,88,0.0,0.0,73,0.00,,SKC,0.00,VWS V14.01,2013-01-22 05:24:00,
2013-01-21 21:29:00,38.6,30.7,30.12,East,87,0.0,0.0,73,0.00,,SKC,0.00,VWS V14.01,2013-01-22 05:29:00,
2013-01-21 21:34:00,38.5,31.0,30.12,East,88,0.0,0.0,74,0.00,,SKC,0.00,VWS V14.01,2013-01-22 05:34:00,
2013-01-21 21:39:00,38.4,30.9,30.12,East,88,0.0,1.0,74,0.00,,SKC,0.00,VWS V14.01,2013-01-22 05:39:00,
2013-01-21 21:44:00,38.3,31.1,30.12,East,88,0.0,0.0,75,0.00,,SKC,0.00,VWS V14.01,2013-01-22 05:44:00,
2013-01-21 21:49:00,38.3,31.1,30.12,East,87,0.0,1.0,75,0.00,,SKC,0.00,VWS V14.01,2013-01-22 05:49:00,
2013-01-21 21:55:00,38.4,30.9,30.12,East,87,0.0,0.0,74,0.00,,SKC,0.00,VWS V14.01,2013-01-22 05:55:00,
2013-01-21 22:04:00,38.5,31.0,30.12,East,88,0.0,0.0,74,0.00,,SKC,0.00,VWS V14.01,2013-01-22 06:04:00,
2013-01-21 22:09:00,38.5,31.0,30.12,East,88,0.0,0.0,74,0.00,,SKC,0.00,VWS V14.01,2013-01-22 06:09:00,
2013-01-21 22:14:00,38.5,31.0,30.13,East,88,0.0,0.0,74,0.00,,SKC,0.00,VWS V14.01,2013-01-22 06:14:00,
2013-01-21 22:19:00,38.5,30.6,30.13,East,88,0.0,0.0,73,0.00,,SKC,0.00,VWS V14.01,2013-01-22 06:19:00,
2013-01-21 22:24:00,38.5,31.0,30.13,East,87,0.0,0.0,74,0.00,,SKC,0.00,VWS V14.01,2013-01-22 06:24:00,
2013-01-21 22:29:00,38.4,30.9,30.13,East,88,0.0,0.0,74,0.00,,SKC,0.00,VWS V14.01,2013-01-22 06:29:00,
2013-01-21 22:34:00,38.3,31.1,30.13,East,88,0.0,0.0,75,0.00,,SKC,0.00,VWS V14.01,2013-01-22 06:34:00,
2013-01-21 22:39:00,38.2,31.3,30.13,East,88,0.0,2.0,76,0.00,,SKC,0.00,VWS V14.01,2013-01-22 06:39:00,
2013-01-21 22:45:00,38.2,31.3,30.13,East,88,0.0,0.0,76,0.00,,SKC,0.00,VWS V14.01,2013-01-22 06:45:00,
2013-01-21 22:54:00,38.0,31.1,30.13,East,88,0.0,1.0,76,0.00,,SKC,0.00,VWS V14.01,2013-01-22 06:54:00,
2013-01-21 22:59:00,37.9,31.0,30.13,East,88,0.0,0.0,76,0.00,,SKC,0.00,VWS V14.01,2013-01-22 06:59:00,
2013-01-21 23:04:00,37.9,31.0,30.13,East,88,0.0,0.0,76,0.00,,SKC,0.00,VWS V14.01,2013-01-22 07:04:00,
2013-01-21 23:10:00,37.8,31.2,30.13,East,88,0.0,0.0,77,0.00,,SKC,0.00,VWS V14.01,2013-01-22 07:10:00,
2013-01-21 23:19:00,37.6,31.1,30.12,East,88,0.0,0.0,77,0.00,,SKC,0.00,VWS V14.01,2013-01-22 07:19:00,
2013-01-21 23:25:00,37.5,31.0,30.12,East,88,0.0,0.0,77,0.00,,SKC,0.00,VWS V14.01,2013-01-22 07:25:00,
2013-01-21 23:35:00,37.6,31.4,30.12,East,87,0.0,0.0,78,0.00,,SKC,0.00,VWS V14.01,2013-01-22 07:35:00,
2013-01-21 23:45:00,37.8,31.2,30.12,East,88,0.0,0.0,77,0.00,,SKC,0.00,VWS V14.01,2013-01-22 07:45:00,
2013-01-21 23:54:00,37.9,31.7,30.11,East,87,0.0,0.0,78,0.00,,SKC,0.00,VWS V14.01,2013-01-22 07:54:00,
2013-01-21 23:59:00,38.2,32.0,30.11,East,88,0.0,0.0,78,0.00,,SKC,0.00,VWS V14.01,2013-01-22 07:59:00,